Regional Weather Roundup
Issued by NWS

Home | Current Version | Previous Version | Text Only | Print | Product List | Glossary Off
Versions: 1 2 3 4 5 6 7 8 9 10 11 12 13 14 15 16 17 18 19 20 21 22 23 24 25 26 27 28 29 30 31 32 33 34 35 36 37 38 39 40 41 42 43 44 45 46 47 48 49 50

000
ASUS43 KLMK 291010
RWRKY
KENTUCKY REGIONAL WEATHER ROUNDUP
NATIONAL WEATHER SERVICE LOUISVILLE KY
600 AM EDT SAT AUG 29 2015

NOTE "FAIR" INDICATES FEW OR NO CLOUDS BELOW 12,000 FEET
WITH NO SIGNIFICANT WEATHER AND/OR OBSTRUCTIONS TO VISIBILITY.

KYZ001>023-026-027-061>063-070>075-291100-
WESTERN AND SOUTH CENTRAL KENTUCKY

CITY           SKY/WX    TMP DP  RH WIND       PRES   REMARKS
PADUCAH        CLOUDY    72  65  78 S6        30.03S
HENDERSON      CLOUDY    70  63  78 S5        30.05R
OWENSBORO      CLOUDY    68  66  93 CALM      30.08R
HOPKINSVILLE   CLEAR     68  65  89 E2        30.08R
BOWLING GREEN  CLOUDY    65  61  87 CALM      30.11R
GLASGOW        MOCLDY    68  64  85 CALM      30.12R
$$

KYZ024-025-028>034-038-045-046-053-291100-
NORTH CENTRAL KENTUCKY

CITY           SKY/WX    TMP DP  RH WIND       PRES   REMARKS
LOUISVILLE/SDF MOCLDY    68  62  81 SE7       30.10R
LOUISVILLE/LOU PTCLDY    69  62  78 SE3       30.11R
FORT KNOX      PTCLDY    66  64  90 S5        30.10R
$$

KYZ035>037-039>044-047>052-055>060-089>105-291100-
NORTHEAST KENTUCKY

CITY           SKY/WX    TMP DP  RH WIND       PRES   REMARKS
LEXINGTON      CLOUDY    67  62  84 SE7       30.14R
COVINGTON      CLOUDY    67  60  78 S3        30.12S
FRANKFORT      PTCLDY    63  60  90 SE3       30.12R
$$

KYZ054-064>069-076>088-106>120-291100-
SOUTHEAST KENTUCKY

CITY           SKY/WX    TMP DP  RH WIND       PRES   REMARKS
JACKSON        PTCLDY    66  61  84 CALM      30.17S
LONDON         PTCLDY    64  60  87 CALM      30.17S FOG
SOMERSET       CLEAR     61  61 100 CALM      30.17R FOG
MIDDLESBORO    MOCLDY    61  60  98 CALM      30.19R
MONTICELLO     MOSUNNY   58  58 100 CALM      30.18R
$$




USA.gov is the U.S. government's official web portal to all federal, state and local government web resources and services.